EN

Hourly Weather Combita

Today, 20 January, Wednesday

Time Temperature Precipitation Wind Pressure Humidity
00:00 +10°C° 0 mm 1 mps 539 mmHg 95%
01:00 +10°C° 0 mm 1 mps 539 mmHg 95%
02:00 +9°C° 0 mm 1 mps 538 mmHg 94%
03:00 +9°C° 0 mm 1 mps 538 mmHg 93%
04:00 +9°C° 0 mm 1 mps 537 mmHg 92%
05:00 +9°C° 0 mm 1 mps 538 mmHg 90%
06:00 +9°C° 0 mm 1 mps 538 mmHg 89%
07:00 +8°C° 0 mm 1 mps 538 mmHg 87%
08:00 +11°C° 0 mm 1 mps 540 mmHg 74%
09:00 +14°C° 0 mm 1 mps 541 mmHg 61%
10:00 +16°C° 0 mm 1 mps 543 mmHg 48%
11:00 +19°C° 0 mm 1 mps 543 mmHg 45%
12:00 +19°C° 0 mm 2 mps 543 mmHg 41%
13:00 +20°C° 0 mm 2 mps 543 mmHg 38%
14:00 +19°C° 0 mm 2 mps 542 mmHg 44%
15:00 +18°C° 0 mm 2 mps 541 mmHg 50%
16:00 +17°C° 0 mm 2 mps 541 mmHg 56%
17:00 +15°C° 0.1 mm 2 mps 540 mmHg 68%
18:00 +13°C° 0.1 mm 2 mps 539 mmHg 80%
19:00 +10°C° 0.1 mm 1 mps 538 mmHg 92%
20:00 +10°C° 0 mm 1 mps 538 mmHg 93%
21:00 +10°C° 0 mm 1 mps 538 mmHg 94%
22:00 +9°C° 0 mm 1 mps 539 mmHg 95%
23:00 +9°C° 0 mm 1 mps 538 mmHg 94%

Tomorrow, 21 January, Thursday

Time Temperature Precipitation Wind Pressure Humidity
00:00 +9°C° 0 mm 1 mps 538 mmHg 94%
01:00 +8°C° 0 mm 0 mps 538 mmHg 94%
02:00 +7°C° 0 mm 0 mps 537 mmHg 94%
03:00 +8°C° 0 mm 1 mps 537 mmHg 94%
04:00 +8°C° 0 mm 1 mps 537 mmHg 94%
05:00 +8°C° 0 mm 1 mps 537 mmHg 93%
06:00 +8°C° 0 mm 1 mps 538 mmHg 91%
07:00 +9°C° 0 mm 1 mps 538 mmHg 90%
08:00 +12°C° 0 mm 1 mps 540 mmHg 78%
09:00 +15°C° 0 mm 1 mps 542 mmHg 67%
10:00 +19°C° 0 mm 1 mps 544 mmHg 55%
11:00 +19°C° 0 mm 1 mps 543 mmHg 52%
12:00 +20°C° 0 mm 1 mps 543 mmHg 49%
13:00 +21°C° 0 mm 1 mps 543 mmHg 46%
14:00 +20°C° 0.2 mm 1 mps 542 mmHg 53%
15:00 +19°C° 0.2 mm 1 mps 541 mmHg 61%
16:00 +17°C° 0.2 mm 2 mps 540 mmHg 68%
17:00 +15°C° 0.3 mm 1 mps 540 mmHg 77%
18:00 +13°C° 0.3 mm 1 mps 539 mmHg 86%
19:00 +10°C° 0.3 mm 0 mps 539 mmHg 96%
20:00 +10°C° 0.2 mm 0 mps 539 mmHg 95%
21:00 +10°C° 0.2 mm 0 mps 539 mmHg 95%
22:00 +11°C° 0.2 mm 1 mps 540 mmHg 95%
23:00 +11°C° 0.1 mm 1 mps 539 mmHg 96%

Day after tomorrow, 22 January, Friday

Time Temperature Precipitation Wind Pressure Humidity
00:00 +10°C° 0.1 mm 1 mps 539 mmHg 96%
01:00 +10°C° 0.1 mm 1 mps 539 mmHg 96%
02:00 +10°C° 0 mm 1 mps 538 mmHg 96%
03:00 +9°C° 0 mm 1 mps 538 mmHg 96%
04:00 +8°C° 0 mm 1 mps 537 mmHg 96%
05:00 +9°C° 0 mm 1 mps 538 mmHg 95%
06:00 +9°C° 0 mm 1 mps 538 mmHg 93%
07:00 +9°C° 0 mm 1 mps 538 mmHg 92%
08:00 +11°C° 0 mm 1 mps 540 mmHg 83%
09:00 +14°C° 0 mm 1 mps 541 mmHg 73%
10:00 +16°C° 0 mm 1 mps 543 mmHg 63%
11:00 +18°C° 0 mm 1 mps 543 mmHg 60%
12:00 +19°C° 0 mm 1 mps 543 mmHg 57%
13:00 +20°C° 0 mm 1 mps 543 mmHg 53%
14:00 +19°C° 0.3 mm 1 mps 542 mmHg 61%
15:00 +18°C° 0.3 mm 1 mps 541 mmHg 69%
16:00 +16°C° 0.3 mm 1 mps 540 mmHg 76%
17:00 +14°C° 0.3 mm 1 mps 540 mmHg 83%
18:00 +13°C° 0.3 mm 1 mps 539 mmHg 89%
19:00 +11°C° 0.3 mm 1 mps 539 mmHg 95%
20:00 +11°C° 0.2 mm 1 mps 539 mmHg 95%
21:00 +11°C° 0.2 mm 1 mps 540 mmHg 95%
22:00 +11°C° 0.2 mm 1 mps 540 mmHg 95%
23:00 +11°C° 0.1 mm 1 mps 540 mmHg 95%

23 January, Saturday

Time Temperature Precipitation Wind Pressure Humidity
00:00 +11°C° 0.1 mm 1 mps 539 mmHg 95%
01:00 +10°C° 0.1 mm 1 mps 539 mmHg 95%
02:00 +10°C° 0 mm 1 mps 539 mmHg 95%
03:00 +9°C° 0 mm 1 mps 538 mmHg 94%
04:00 +9°C° 0 mm 1 mps 538 mmHg 94%
05:00 +9°C° 0 mm 1 mps 538 mmHg 93%
06:00 +9°C° 0 mm 1 mps 539 mmHg 93%
07:00 +9°C° 0 mm 1 mps 539 mmHg 92%
08:00 +12°C° 0 mm 1 mps 541 mmHg 82%
09:00 +14°C° 0 mm 1 mps 542 mmHg 72%
10:00 +18°C° 0 mm 1 mps 544 mmHg 62%
11:00 +18°C° 0.3 mm 1 mps 543 mmHg 62%
12:00 +18°C° 0.3 mm 1 mps 543 mmHg 62%
13:00 +19°C° 0.3 mm 1 mps 543 mmHg 63%
14:00 +18°C° 0.9 mm 1 mps 542 mmHg 68%
15:00 +16°C° 0.9 mm 1 mps 541 mmHg 73%
16:00 +16°C° 0.9 mm 1 mps 540 mmHg 78%
17:00 +14°C° 0.8 mm 1 mps 539 mmHg 84%
18:00 +13°C° 0.8 mm 1 mps 539 mmHg 89%
19:00 +12°C° 0.8 mm 1 mps 539 mmHg 94%
20:00 +11°C° 0.2 mm 1 mps 539 mmHg 95%
21:00 +11°C° 0.2 mm 1 mps 539 mmHg 95%
22:00 +11°C° 0.2 mm 1 mps 540 mmHg 96%
23:00 +10°C° 0 mm 1 mps 539 mmHg 96%

24 January, Sunday

Time Temperature Precipitation Wind Pressure Humidity
00:00 +10°C° 0 mm 1 mps 539 mmHg 96%
01:00 +10°C° 0 mm 1 mps 538 mmHg 96%
02:00 +9°C° 0 mm 1 mps 538 mmHg 96%
03:00 +9°C° 0 mm 1 mps 538 mmHg 95%
04:00 +9°C° 0 mm 1 mps 537 mmHg 95%
05:00 +9°C° 0 mm 1 mps 538 mmHg 94%
06:00 +9°C° 0 mm 1 mps 538 mmHg 94%
07:00 +9°C° 0 mm 1 mps 538 mmHg 93%
08:00 +11°C° 0 mm 1 mps 540 mmHg 84%
09:00 +13°C° 0 mm 1 mps 541 mmHg 75%
10:00 +16°C° 0 mm 1 mps 542 mmHg 66%
11:00 +16°C° 0.1 mm 1 mps 542 mmHg 63%
12:00 +18°C° 0.1 mm 1 mps 542 mmHg 59%
13:00 +18°C° 0.1 mm 2 mps 542 mmHg 56%
14:00 +18°C° 0.7 mm 1 mps 541 mmHg 66%
15:00 +15°C° 0.7 mm 1 mps 540 mmHg 76%
16:00 +14°C° 0.7 mm 1 mps 539 mmHg 86%
17:00 +13°C° 0.5 mm 1 mps 538 mmHg 89%
18:00 +12°C° 0.5 mm 1 mps 538 mmHg 91%
19:00 +11°C° 0.5 mm 1 mps 538 mmHg 94%
20:00 +11°C° 0.2 mm 1 mps 538 mmHg 94%
21:00 +10°C° 0.2 mm 1 mps 539 mmHg 94%
22:00 +10°C° 0.2 mm 1 mps 539 mmHg 94%
23:00 +10°C° 0 mm 1 mps 538 mmHg 95%

25 January, Monday

Time Temperature Precipitation Wind Pressure Humidity
00:00 +9°C° 0 mm 1 mps 538 mmHg 95%
01:00 +9°C° 0 mm 1 mps 537 mmHg 95%
02:00 +8°C° 0 mm 1 mps 537 mmHg 95%
03:00 +8°C° 0 mm 1 mps 537 mmHg 95%
04:00 +8°C° 0 mm 1 mps 537 mmHg 95%
05:00 +8°C° 0 mm 1 mps 537 mmHg 94%
06:00 +9°C° 0 mm 1 mps 537 mmHg 93%
07:00 +9°C° 0 mm 1 mps 538 mmHg 93%
08:00 +11°C° 0 mm 1 mps 539 mmHg 83%
09:00 +14°C° 0 mm 1 mps 541 mmHg 74%
10:00 +16°C° 0 mm 1 mps 543 mmHg 64%
11:00 +18°C° 0.1 mm 1 mps 542 mmHg 62%
12:00 +19°C° 0.1 mm 1 mps 542 mmHg 59%
13:00 +20°C° 0.1 mm 1 mps 542 mmHg 57%
14:00 +19°C° 0.3 mm 1 mps 541 mmHg 62%
15:00 +18°C° 0.3 mm 1 mps 540 mmHg 67%
16:00 +16°C° 0.3 mm 2 mps 539 mmHg 72%
17:00 +15°C° 0.3 mm 1 mps 538 mmHg 80%
18:00 +13°C° 0.3 mm 1 mps 538 mmHg 88%
19:00 +10°C° 0.3 mm 0 mps 537 mmHg 96%
20:00 +10°C° 0.1 mm 0 mps 538 mmHg 95%
21:00 +10°C° 0.1 mm 0 mps 538 mmHg 94%
22:00 +11°C° 0.1 mm 1 mps 539 mmHg 94%
23:00 +10°C° 0 mm 1 mps 538 mmHg 94%
Show more

We Need Your Consent

Meteoprog and our Service Providers may store and access personal data such as cookies, device identifiers or other similar technologies on your device and process such data to personalise content and ads, as well as provide social media features and to analyse the traffic.

  • Store and/or access information on your device

    Cookies, device identifiers or other information can be stored or accessed on your device for the purposes indicated above.

  • Personalised ads and content, ad and content measurement, audience insights, and products development

    Ads and content can be personalised based on a profile. More data can be added to better personalise ads and content. Ad and content performance can be measured. Insights about the audience who saw the ads and content can be derived. Such data can be used to develop or improve user’s experience, systems and software.

By clicking ‘I Agree’ you will allow the use of indicated cookies, device identifiers, web beacons or other similar technologies. Your settings can be changed in the browser on your device.

For certain purposes, legitimate interests may be relied on, rather than consent. You can read more about this in our Privacy and Cookie Policy.